Grand Canyon, AZ

2:51 PM MST on May 29, 2017 (GMT -0700)
Grand Canyon National Park

Weather History for KGCN - January, 2014

Change the Weather History Date:

Sunday, January 19, 2014

  Actual Average Record
Temperature  
Mean Temperature 32 °F -  
Max Temperature 55 °F 44 °F 77 °F (2003)
Min Temperature 10 °F 17 °F -4 °F (2001)
Degree Days  
Heating Degree Days 32    
Moisture  
Dew Point 4 °F    
Average Humidity 44    
Maximum Humidity 73    
Minimum Humidity 12    
Precipitation  
Precipitation 0.00 in - - ()
Sea Level Pressure  
Sea Level Pressure 30.33 in    
Wind  
Wind Speed 2 mph (SSW)    
Max Wind Speed 10 mph    
Max Gust Speed -    
Visibility 10 miles    
Events      
Averages and records for this station are not official NWS values.
T = Trace of Precipitation, MM = Missing Value Source: NWS Daily Summary

Daily Weather History Graph

Daily Weather History Graph

Search for Another Location

Airport or City:

Trip Planner

Search our weather history database for the weather conditions in past years. The results will help you decide how hot, cold, wet, or windy it might be!

Date:

Astronomy

Jan. 19, 2014 Rise Set
Actual Time 7:36 AM MST 5:42 PM MST
Civil Twilight 7:09 AM MST 6:09 PM MST
Nautical Twilight 6:37 AM MST 6:41 PM MST
Astronomical Twilight 6:07 AM MST 7:11 PM MST
Moon 9:15 PM MST (1/19) 9:16 AM MST (1/19)
Length of Visible Light 11h 00m
Length of Day
10h 05m
Waning Gibbous, 89% of the Moon is Illuminated
Jan 19
Waning Gibbous
Jan 23
Last Quarter
Jan 30
New
Feb 6
First Quarter
Feb 14
Full

Hourly Weather History & Observations

Time (MST) Temp. Windchill Dew Point Humidity Pressure Visibility Wind Dir Wind Speed Gust Speed Precip Events Conditions
12:54 AM 12.9 °F - 3.0 °F 65% 30.30 in 10.0 mi Calm Calm - N/A   Clear
1:54 AM 10.9 °F - 1.9 °F 67% 30.32 in 10.0 mi Calm Calm - N/A   Clear
2:54 AM 10.9 °F - 1.9 °F 67% 30.32 in 10.0 mi Calm Calm - N/A   Clear
3:54 AM 12.0 °F - 3.9 °F 70% 30.31 in 10.0 mi Calm Calm - N/A   Clear
4:54 AM 10.0 °F - 3.0 °F 73% 30.35 in 10.0 mi Calm Calm - N/A   Clear
5:54 AM 10.9 °F - 3.0 °F 70% 30.37 in 10.0 mi Calm Calm - N/A   Clear
6:54 AM 10.9 °F - 3.0 °F 70% 30.46 in 10.0 mi Calm Calm - N/A   Clear
7:54 AM 10.0 °F - 3.0 °F 73% 30.47 in 10.0 mi Calm Calm - N/A   Clear
8:54 AM 25.0 °F 20.7 °F 9.0 °F 51% 30.43 in 10.0 mi NE 3.5 mph - N/A   Clear
9:54 AM 46.0 °F - 10.0 °F 23% 30.37 in 10.0 mi Calm Calm - N/A   Clear
10:54 AM 52.0 °F - 7.0 °F 16% 30.33 in 10.0 mi SSW 3.5 mph - N/A   Clear
11:54 AM 54.0 °F - 8.1 °F 16% 30.30 in 10.0 mi SW 10.4 mph - N/A   Clear
12:54 PM 55.0 °F - 7.0 °F 15% 30.27 in 10.0 mi Variable 5.8 mph - N/A   Clear
1:54 PM 55.0 °F - 7.0 °F 15% 30.26 in 10.0 mi SW 5.8 mph - N/A   Clear
2:54 PM 54.0 °F - 6.1 °F 15% 30.26 in 10.0 mi WSW 6.9 mph - N/A   Clear
3:54 PM 55.0 °F - 3.9 °F 13% 30.25 in 10.0 mi Variable 4.6 mph - N/A   Clear
4:54 PM 53.1 °F - 1.0 °F 12% 30.26 in 10.0 mi Variable 3.5 mph - N/A   Clear
5:54 PM 32.0 °F 28.7 °F 1.0 °F 27% 30.36 in 10.0 mi NE 3.5 mph - N/A   Clear
6:54 PM 27.0 °F 23.0 °F 3.0 °F 36% 30.40 in 10.0 mi ENE 3.5 mph - N/A   Clear
7:54 PM 21.9 °F - 1.9 °F 42% 30.43 in 10.0 mi Calm Calm - N/A   Clear
8:54 PM 19.0 °F - 1.9 °F 47% 30.37 in 10.0 mi Calm Calm - N/A   Clear
9:54 PM 19.9 °F - 3.9 °F 50% 30.27 in 10.0 mi North - - N/A   Unknown
10:54 PM 16.0 °F - 1.9 °F 54% 30.28 in 10.0 mi North - - N/A   Clear
11:54 PM 15.1 °F - 3.0 °F 59% 30.26 in 10.0 mi North - - N/A   Clear